SCP
0 0 0 0 0 0 0 0 0 0 0 0 0 -0 -0 -0 0 0 0 0 0 0 0 0 0 0 0 0 0 0 0 0 0 0 0 0 0 0 0 0 0 0 0 0
0 0 0 0 0 0 0 0 0 0 0 0 -0 -0 -0 0 0 0 0 0 0 0 0 0 0 0 0 0 0 0 0 0 0 0 0 0 0 0 0 0 0 0 0 0
0 0 0 0 0 0 0 0 0 0 0 0 -0 -0 -0 0 0 0 0 0 0 0 0 0 0 0 0 0 0 0 0 0 0 0 0 0 0 0 0 0 0 0 0 0
0 0 0 0 0 0 0 0 0 0 0 0 -0 -0 -0 -0 0 0 0 0 -0 0 0 0 0 0 0 0 0 0 0 0 0 0 0 0 0 0 0 0 0 0 0 0
0 0 0 0 0 0 0 0 0 0 -0 -0 -0 -0 -0 -0 0 0 0 0 -0 0 0 0 0 0 0 0 0 0 0 0 0 0 0 0 0 0 0 0 0 0 0 0
0 0 0 0 0 0 0 0 0 0 -0 -0 -0 -0 -0 0 0 0 0 0 -0 0 0 0 0 0 0 0 0 0 0 0 0 0 0 0 0 0 0 0 0 0 0 0
0 0 0 0 0 0 0 0 0 0 0 -0 -0 0 -0 -0 -0 0 0 0 0 0 0 -0 -0 0 0 0 0 0 0 0 0 0 0 0 0 0 0 0 0 0 -0 -0
0 0 0 0 0 0 0 0 0 -0 -0 -0 0 -0 -0 -0 0 0 0 0 0 0 0 0 0 0 0 0 0 0 0 0 0 0 0 0 0 0 0 0 0 0 -0 -0
0 0 0 0 0 0 0 0 0 0 0 -0 0 0 0 -0 0 0 0 0 0 -0 0 0 0 0 0 0 0 0 0 0 0 0 0 0 0 0 0 0 0 0 -0 -0
0 0 0 0 0 0 0 0 0 0 0 0 0 0 0 0 0 0 0 0 -0 -0 0 0 -0 -0 0 0 0 0 0 0 0 0 0 0 0 0 0 0 0 0 -0 -0
0 0 0 0 0 0 0 0 0 0 0 0 0 0 0 0 0 0 0 0 -0 -0 0 -0 -0 0 0 0 0 0 0 0 0 0 0 0 0 0 0 0 0 -0 -0 -0
0 0 0 0 0 0 0 0 0 0 0 0 0 0 0 0 0 0 0 0 -0 0 0 0 -0 -0 0 0 0 0 0 0 0 0 0 0 0 0 0 0 0 -0 -0 0
0 0 0 0 0 0 0 0 0 0 0 0 0 0 0 0 0 0 -0 0 -0 0 -0 -0 -0 -0 0 0 -0 0 0 0 0 0 0 0 0 0 0 0 0 0 -0 -0
0 0 0 0 0 0 0 0 0 0 0 0 0 0 0 0 0 0 0 0 -0 -0 -0 -0 -0 -0 0 -0 -0 0 0 0 0 0 0 0 0 0 0 0 0 0 0 -0
0 0 0 -0 0 0 0 0 0 0 -0 0 -0 0 -0 0 0 -0 0 0 -0 -0 -0 -0 -0 -0 -0 -0 -0 0 0 0 0 0 0 0 0 0 0 -0 -0 -0 0 0
0 0 0 -0 -0 -0 0 0 0 0 0 -0 -0 -0 -0 0 0 0 0 -0 -0 -0 -0 -0 -0 -0 -0 -0 -0 0 0 -0 -0 0 0 0 -0 -0 -0 -0 -0 -0 -0 -0
0 0 0 0 0 -0 -0 0 0 0 0 0 0 -0 -0 -0 0 0 0 -0 -0 -0 -0 -0 -0 -0 -0 -0 -0 -0 -0 -0 -0 -0 -0 -0 -0 -0 -0 -0 -0 -0 -0 -0
0 0 0 0 0 0 0 0 0 0 0 0 0 0 0 0 -0 -0 0 -0 -0 -0 -0 -0 -0 -0 -0 -0 -0 0 0 0 -0 -0 -0 -0 0 -0 -0 -0 -0 0 -0 0
0 0 0 0 0 0 0 0 0 0 0 0 0 0 0 0 0 0 -0 0 -0 -0 -0 -0 -0 -0 -0 -0 -0 -0 0 0 0 -0 -0 -0 -0 0 0 -0 0 0 0 0
0 0 0 0 0 0 0 0 0 0 0 0 0 0 0 0 0 -0 0 0 0 -0 -0 -0 -0 -0 -0 -0 -0 -0 0 0 0 0 0 0 -0 0 0 0 0 0 0 0
0 0 0 0 0 0 0 0 0 0 0 0 0 0 0 0 0 0 0 -0 0 -0 -0 -0 -0 -0 -0 -0 -0 -0 -0 -0 0 0 0 0 -0 0 0 0 0 0 0 0
0 0 0 0 0 0 0 0 0 0 0 0 0 0 0 0 0 -0 0 -0 0 -0 -0 -0 -0 -0 -0 -0 -0 -0 -0 0 0 0 -0 -0 0 -0 0 -0 0 0 0 0
0 0 0 0 0 0 0 0 0 0 0 0 0 0 0 0 0 0 0 -0 0 0 -0 -0 -0 -0 -0 -0 -0 -0 0 0 0 -0 -0 -0 -0 0 -0 -0 -0 0 0 0
0 0 0 0 0 0 0 0 0 0 0 0 0 0 0 0 0 0 0 0 0 0 0 -0 -0 -0 -0 -0 -0 -0 -0 -0 -0 -0 0 -0 -0 -0 0 0 0 0 0 0
0 0 0 0 0 0 0 0 0 0 0 0 0 0 0 0 0 0 0 0 0 0 0 0 -0 -0 -0 -0 -0 -0 -0 -0 -0 -0 -0 -0 0 0 0 0 0 0 0 0
0 0 0 0 0 0 0 0 0 0 0 0 0 0 0 0 0 0 0 0 0 0 0 0 0 0 -0 -0 -0 -0 -0 -0 -0 -0 -0 -0 0 0 0 0 0 0 0 0
Wind_Speed_500mb
25 15 42 46 30 14 13 28 28 4 7 12 19 19 29 47 25 35 57 68 82 85 77 57 50 64 61 58 57 61 58 46 38 28 21 14 10 17 19 24 23 18 19 21
12 56 41 22 28 26 17 24 33 21 7 13 20 25 31 32 34 40 55 74 72 62 50 47 43 51 61 65 70 65 51 40 32 23 18 11 13 17 21 23 19 16 17 21
54 45 25 31 19 27 27 35 34 22 14 12 15 24 23 26 27 34 49 44 46 50 43 38 38 50 59 69 74 59 43 36 28 20 14 9 11 16 19 17 13 15 16 15
34 43 42 25 37 31 37 32 30 24 9 17 10 12 20 19 33 18 43 47 50 41 41 35 41 45 58 72 62 47 39 34 25 17 11 7 11 16 13 13 9 10 9 4
26 35 46 46 49 41 27 15 14 13 14 3 9 11 13 9 19 28 23 53 54 41 35 30 34 44 62 65 52 41 37 30 20 14 10 5 13 14 13 12 11 9 7 3
28 20 38 32 17 26 9 6 8 8 2 18 28 14 10 12 22 13 12 22 28 22 24 27 35 50 64 55 47 41 36 24 15 14 10 4 12 11 13 11 12 11 10 9
10 18 6 15 30 9 14 15 3 7 1 11 12 13 29 20 18 18 24 36 17 22 33 39 52 69 64 55 46 40 33 20 16 14 10 3 11 9 13 16 14 8 4 16
15 11 29 14 20 26 30 20 12 12 7 9 12 15 17 26 31 45 48 36 21 35 39 46 63 70 60 52 43 37 29 18 18 18 11 1 7 11 12 16 11 1 10 17
17 14 6 27 15 35 23 20 24 3 3 2 8 15 16 12 18 11 2 14 32 40 46 53 67 63 56 46 40 35 25 21 17 17 12 5 5 12 12 17 13 6 15 19
5 5 14 27 16 38 18 22 13 14 12 7 10 10 11 4 11 8 11 19 37 42 46 54 66 61 49 39 36 33 24 20 20 16 11 7 1 11 11 13 14 9 16 21
5 5 7 19 27 34 11 13 6 16 9 10 2 12 15 17 17 18 18 35 49 53 53 59 66 57 44 39 39 32 27 24 22 17 15 7 2 9 7 9 5 8 14 23
6 4 8 20 15 41 44 31 16 14 9 8 7 12 7 18 13 14 16 32 38 47 54 61 65 57 48 44 41 33 29 25 20 17 13 9 3 6 4 6 6 5 16 19
16 7 3 10 6 4 44 37 31 11 7 29 16 12 6 10 13 13 22 38 39 47 54 61 63 57 49 46 41 33 30 26 21 18 17 9 2 2 3 5 11 11 15 19
20 6 10 20 11 10 9 31 39 23 10 6 22 2 9 7 13 11 24 38 45 49 56 64 66 57 49 45 40 33 30 27 24 19 19 12 5 3 5 14 17 18 21 25
5 7 9 21 26 14 11 25 38 35 43 26 10 16 13 16 18 14 36 42 48 51 58 69 70 59 53 47 42 34 34 30 26 22 20 14 12 6 11 24 26 29 30 26
5 7 12 8 15 32 26 21 31 46 41 36 7 21 18 7 13 18 45 51 53 58 64 69 67 61 57 50 46 37 38 34 30 26 23 19 17 12 20 29 30 29 27 26
6 8 13 9 15 8 18 37 21 17 25 36 25 48 9 9 16 24 48 58 62 65 70 72 70 64 58 53 50 43 41 38 34 29 27 27 24 20 24 30 30 26 21 21
7 11 4 7 9 11 5 23 18 27 15 15 16 10 14 22 59 58 61 70 68 66 71 71 68 65 55 50 51 43 42 42 38 34 31 34 31 22 23 27 26 23 19 19
16 5 5 4 5 7 11 21 17 9 8 19 19 24 18 44 7 14 59 71 73 72 71 69 65 62 53 53 54 50 46 46 41 40 35 37 34 26 30 24 21 18 16 18
15 22 10 1 4 7 18 31 19 6 7 25 24 24 27 32 8 12 61 66 66 65 62 66 65 65 54 56 58 57 52 51 47 44 41 36 40 33 29 23 21 16 13 15
4 1 8 4 4 2 27 34 4 13 10 38 34 33 29 10 17 49 33 70 70 70 63 65 67 70 60 59 62 64 59 56 49 44 41 38 43 38 31 27 22 20 11 13
3 3 1 5 3 5 40 12 14 11 25 32 40 36 43 50 59 56 40 53 66 70 63 67 71 71 67 62 65 67 66 52 49 47 46 42 44 42 39 29 30 23 14 12
4 4 4 9 4 17 30 6 9 24 35 38 44 54 52 51 53 41 44 38 70 70 72 68 75 74 73 71 68 66 62 58 53 48 49 47 41 45 43 37 33 29 24 16
1 2 0 8 12 26 47 15 30 41 49 55 55 56 52 53 48 37 36 39 59 73 80 73 77 78 77 76 72 61 57 57 57 53 54 50 47 49 47 43 37 34 31 26
2 6 5 3 13 33 16 34 50 60 54 60 57 59 62 53 49 31 25 42 56 76 87 80 75 77 77 78 74 68 61 60 59 57 56 55 52 48 48 47 45 43 36 30
9 7 1 2 7 17 34 50 62 55 57 61 58 63 69 59 57 31 17 42 57 72 87 84 76 74 72 69 72 71 65 64 62 61 62 61 58 57 53 49 49 46 40 34
Wind_Direction_500mb
181 198 215 207 207 206 205 230 244 251 199 240 242 265 268 280 271 272 280 283 292 293 296 292 282 249 235 222 213 202 199 204 210 208 211 224 281 301 308 315 300 278 273 274
174 227 218 191 203 211 212 239 254 268 221 237 272 272 273 277 274 266 272 278 281 286 284 282 267 242 231 217 199 197 198 207 207 203 216 238 287 308 311 318 301 285 288 285
202 222 197 195 192 203 215 224 242 249 315 254 309 290 270 280 277 277 282 283 295 276 270 267 239 225 216 200 193 188 196 203 197 201 212 248 301 320 319 319 306 300 301 291
232 222 193 194 208 189 221 219 242 264 278 268 142 280 301 301 299 288 285 296 293 284 273 241 225 212 200 188 182 184 194 194 192 199 209 254 322 339 329 327 319 311 313 302
211 181 209 206 209 200 233 204 222 233 229 239 256 277 269 273 282 282 276 287 281 272 260 242 218 197 182 177 177 184 187 185 191 200 210 279 343 337 336 326 320 292 298 208
218 206 199 203 181 205 137 202 40 36 65 257 261 206 221 228 237 261 266 277 297 253 218 200 189 172 168 171 178 181 184 180 188 199 209 304 349 343 341 339 323 283 271 212
165 224 169 153 212 158 138 100 276 333 270 230 192 183 249 255 231 226 257 277 288 199 172 173 165 166 168 175 180 182 180 180 186 190 194 304 354 352 340 341 328 289 225 187
171 206 196 173 183 192 196 167 154 203 222 255 161 205 248 225 233 246 258 260 206 188 170 167 168 168 172 179 179 180 179 183 185 180 186 220 6 3 347 346 349 24 157 170
181 237 190 189 158 177 198 190 179 14 188 313 224 279 308 226 255 264 202 198 186 180 170 168 169 170 176 177 178 178 176 179 180 176 189 186 52 13 10 17 21 115 148 163
225 167 195 210 183 188 158 142 178 204 199 220 271 268 232 229 241 291 230 200 181 174 170 167 171 174 176 177 175 171 175 173 170 175 174 139 20 11 27 36 47 98 149 162
6 154 283 142 195 185 166 172 159 170 162 168 276 262 215 230 228 234 222 186 185 172 170 168 173 174 173 172 176 174 175 170 171 173 175 183 278 360 16 31 82 103 148 161
312 313 234 214 166 195 200 193 159 190 195 208 163 267 213 230 256 234 226 176 183 177 169 171 172 172 173 175 178 181 177 176 175 176 178 177 209 349 11 25 125 112 164 166
342 295 193 6 304 174 202 207 209 115 109 206 209 253 307 328 303 252 195 168 172 171 171 173 174 175 176 177 180 181 180 181 185 187 188 189 173 13 25 67 126 128 144 158
354 278 270 217 208 142 150 203 209 200 204 204 222 270 277 280 259 241 163 170 168 174 175 174 178 178 180 180 181 181 180 178 180 180 180 174 125 95 58 122 127 135 134 137
7 277 311 300 288 282 171 181 200 204 214 213 223 241 250 249 239 235 170 165 168 176 180 180 181 180 183 184 184 186 182 180 180 180 182 164 143 95 103 125 127 126 127 128
297 284 342 285 261 274 266 255 214 200 208 229 243 252 228 264 157 180 165 172 178 185 188 186 184 184 187 186 188 189 185 185 186 184 181 166 150 106 116 128 125 126 126 127
287 339 352 303 339 241 258 237 229 209 226 207 197 236 148 202 215 192 174 188 190 193 191 189 190 188 188 187 190 190 188 187 192 186 180 168 158 121 121 124 117 119 133 138
221 299 263 267 302 168 265 26 219 205 53 351 269 324 230 203 215 198 195 199 199 200 196 193 192 190 189 186 190 187 189 189 193 191 184 177 170 157 130 130 118 105 122 142
205 210 246 186 262 266 22 22 350 15 75 9 344 341 339 336 299 207 203 210 206 207 199 195 192 187 184 186 187 189 191 192 193 195 189 186 184 183 173 158 135 108 97 131
307 215 199 90 209 174 356 320 298 151 178 356 346 335 333 333 163 236 206 215 210 211 201 194 192 188 184 185 187 190 193 195 196 194 191 188 188 185 182 175 171 148 98 127
50 42 179 228 242 30 347 326 155 149 288 318 325 320 320 301 257 290 329 214 215 209 203 192 192 189 185 186 189 194 196 199 193 195 191 193 193 190 187 184 181 172 150 136
116 314 164 183 221 131 354 5 63 278 299 313 324 322 313 309 304 288 280 238 209 202 200 192 192 193 189 189 192 196 200 192 193 197 198 197 197 195 195 192 185 182 182 158
88 42 325 8 28 328 339 336 352 339 309 325 326 329 332 324 318 296 266 247 221 200 202 193 192 194 194 194 196 199 201 196 194 199 200 200 199 202 201 200 199 195 194 190
114 237 198 329 332 317 308 300 348 341 336 339 347 340 346 331 332 308 263 242 222 204 202 194 192 197 199 198 201 205 199 195 198 200 202 198 204 205 206 208 211 208 207 204
214 212 214 259 306 326 63 333 333 330 341 341 352 360 354 350 347 325 262 233 226 214 202 196 193 198 204 202 203 206 206 200 199 202 205 203 203 208 207 211 212 215 219 222
200 204 36 63 297 286 288 319 324 330 332 342 342 353 6 360 348 337 277 220 224 211 206 198 197 201 207 205 205 208 209 206 204 203 206 207 205 209 209 210 216 219 220 220
Wind_Speed_850mb
25 15 42 46 30 14 13 28 28 4 7 12 19 19 29 47 25 35 57 68 82 85 77 57 50 64 61 58 57 61 58 46 38 28 21 14 10 17 19 24 23 18 19 21
12 56 41 22 28 26 17 24 33 21 7 13 20 25 31 32 34 40 55 74 72 62 50 47 43 51 61 65 70 65 51 40 32 23 18 11 13 17 21 23 19 16 17 21
54 45 25 31 19 27 27 35 34 22 14 12 15 24 23 26 27 34 49 44 46 50 43 38 38 50 59 69 74 59 43 36 28 20 14 9 11 16 19 17 13 15 16 15
34 43 42 25 37 31 37 32 30 24 9 17 10 12 20 19 33 18 43 47 50 41 41 35 41 45 58 72 62 47 39 34 25 17 11 7 11 16 13 13 9 10 9 4
26 35 46 46 49 41 27 15 14 13 14 3 9 11 13 9 19 28 23 53 54 41 35 30 34 44 62 65 52 41 37 30 20 14 10 5 13 14 13 12 11 9 7 3
28 20 38 32 17 26 9 6 8 8 2 18 28 14 10 12 22 13 12 22 28 22 24 27 35 50 64 55 47 41 36 24 15 14 10 4 12 11 13 11 12 11 10 9
10 18 6 15 30 9 14 15 3 7 1 11 12 13 29 20 18 18 24 36 17 22 33 39 52 69 64 55 46 40 33 20 16 14 10 3 11 9 13 16 14 8 4 16
15 11 29 14 20 26 30 20 12 12 7 9 12 15 17 26 31 45 48 36 21 35 39 46 63 70 60 52 43 37 29 18 18 18 11 1 7 11 12 16 11 1 10 17
17 14 6 27 15 35 23 20 24 3 3 2 8 15 16 12 18 11 2 14 32 40 46 53 67 63 56 46 40 35 25 21 17 17 12 5 5 12 12 17 13 6 15 19
5 5 14 27 16 38 18 22 13 14 12 7 10 10 11 4 11 8 11 19 37 42 46 54 66 61 49 39 36 33 24 20 20 16 11 7 1 11 11 13 14 9 16 21
5 5 7 19 27 34 11 13 6 16 9 10 2 12 15 17 17 18 18 35 49 53 53 59 66 57 44 39 39 32 27 24 22 17 15 7 2 9 7 9 5 8 14 23
6 4 8 20 15 41 44 31 16 14 9 8 7 12 7 18 13 14 16 32 38 47 54 61 65 57 48 44 41 33 29 25 20 17 13 9 3 6 4 6 6 5 16 19
16 7 3 10 6 4 44 37 31 11 7 29 16 12 6 10 13 13 22 38 39 47 54 61 63 57 49 46 41 33 30 26 21 18 17 9 2 2 3 5 11 11 15 19
20 6 10 20 11 10 9 31 39 23 10 6 22 2 9 7 13 11 24 38 45 49 56 64 66 57 49 45 40 33 30 27 24 19 19 12 5 3 5 14 17 18 21 25
5 7 9 21 26 14 11 25 38 35 43 26 10 16 13 16 18 14 36 42 48 51 58 69 70 59 53 47 42 34 34 30 26 22 20 14 12 6 11 24 26 29 30 26
5 7 12 8 15 32 26 21 31 46 41 36 7 21 18 7 13 18 45 51 53 58 64 69 67 61 57 50 46 37 38 34 30 26 23 19 17 12 20 29 30 29 27 26
6 8 13 9 15 8 18 37 21 17 25 36 25 48 9 9 16 24 48 58 62 65 70 72 70 64 58 53 50 43 41 38 34 29 27 27 24 20 24 30 30 26 21 21
7 11 4 7 9 11 5 23 18 27 15 15 16 10 14 22 59 58 61 70 68 66 71 71 68 65 55 50 51 43 42 42 38 34 31 34 31 22 23 27 26 23 19 19
16 5 5 4 5 7 11 21 17 9 8 19 19 24 18 44 7 14 59 71 73 72 71 69 65 62 53 53 54 50 46 46 41 40 35 37 34 26 30 24 21 18 16 18
15 22 10 1 4 7 18 31 19 6 7 25 24 24 27 32 8 12 61 66 66 65 62 66 65 65 54 56 58 57 52 51 47 44 41 36 40 33 29 23 21 16 13 15
4 1 8 4 4 2 27 34 4 13 10 38 34 33 29 10 17 49 33 70 70 70 63 65 67 70 60 59 62 64 59 56 49 44 41 38 43 38 31 27 22 20 11 13
3 3 1 5 3 5 40 12 14 11 25 32 40 36 43 50 59 56 40 53 66 70 63 67 71 71 67 62 65 67 66 52 49 47 46 42 44 42 39 29 30 23 14 12
4 4 4 9 4 17 30 6 9 24 35 38 44 54 52 51 53 41 44 38 70 70 72 68 75 74 73 71 68 66 62 58 53 48 49 47 41 45 43 37 33 29 24 16
1 2 0 8 12 26 47 15 30 41 49 55 55 56 52 53 48 37 36 39 59 73 80 73 77 78 77 76 72 61 57 57 57 53 54 50 47 49 47 43 37 34 31 26
2 6 5 3 13 33 16 34 50 60 54 60 57 59 62 53 49 31 25 42 56 76 87 80 75 77 77 78 74 68 61 60 59 57 56 55 52 48 48 47 45 43 36 30
9 7 1 2 7 17 34 50 62 55 57 61 58 63 69 59 57 31 17 42 57 72 87 84 76 74 72 69 72 71 65 64 62 61 62 61 58 57 53 49 49 46 40 34
Wind_Direction_850mb
181 198 215 207 207 206 205 230 244 251 199 240 242 265 268 280 271 272 280 283 292 293 296 292 282 249 235 222 213 202 199 204 210 208 211 224 281 301 308 315 300 278 273 274
174 227 218 191 203 211 212 239 254 268 221 237 272 272 273 277 274 266 272 278 281 286 284 282 267 242 231 217 199 197 198 207 207 203 216 238 287 308 311 318 301 285 288 285
202 222 197 195 192 203 215 224 242 249 315 254 309 290 270 280 277 277 282 283 295 276 270 267 239 225 216 200 193 188 196 203 197 201 212 248 301 320 319 319 306 300 301 291
232 222 193 194 208 189 221 219 242 264 278 268 142 280 301 301 299 288 285 296 293 284 273 241 225 212 200 188 182 184 194 194 192 199 209 254 322 339 329 327 319 311 313 302
211 181 209 206 209 200 233 204 222 233 229 239 256 277 269 273 282 282 276 287 281 272 260 242 218 197 182 177 177 184 187 185 191 200 210 279 343 337 336 326 320 292 298 208
218 206 199 203 181 205 137 202 40 36 65 257 261 206 221 228 237 261 266 277 297 253 218 200 189 172 168 171 178 181 184 180 188 199 209 304 349 343 341 339 323 283 271 212
165 224 169 153 212 158 138 100 276 333 270 230 192 183 249 255 231 226 257 277 288 199 172 173 165 166 168 175 180 182 180 180 186 190 194 304 354 352 340 341 328 289 225 187
171 206 196 173 183 192 196 167 154 203 222 255 161 205 248 225 233 246 258 260 206 188 170 167 168 168 172 179 179 180 179 183 185 180 186 220 6 3 347 346 349 24 157 170
181 237 190 189 158 177 198 190 179 14 188 313 224 279 308 226 255 264 202 198 186 180 170 168 169 170 176 177 178 178 176 179 180 176 189 186 52 13 10 17 21 115 148 163
225 167 195 210 183 188 158 142 178 204 199 220 271 268 232 229 241 291 230 200 181 174 170 167 171 174 176 177 175 171 175 173 170 175 174 139 20 11 27 36 47 98 149 162
6 154 283 142 195 185 166 172 159 170 162 168 276 262 215 230 228 234 222 186 185 172 170 168 173 174 173 172 176 174 175 170 171 173 175 183 278 360 16 31 82 103 148 161
312 313 234 214 166 195 200 193 159 190 195 208 163 267 213 230 256 234 226 176 183 177 169 171 172 172 173 175 178 181 177 176 175 176 178 177 209 349 11 25 125 112 164 166
342 295 193 6 304 174 202 207 209 115 109 206 209 253 307 328 303 252 195 168 172 171 171 173 174 175 176 177 180 181 180 181 185 187 188 189 173 13 25 67 126 128 144 158
354 278 270 217 208 142 150 203 209 200 204 204 222 270 277 280 259 241 163 170 168 174 175 174 178 178 180 180 181 181 180 178 180 180 180 174 125 95 58 122 127 135 134 137
7 277 311 300 288 282 171 181 200 204 214 213 223 241 250 249 239 235 170 165 168 176 180 180 181 180 183 184 184 186 182 180 180 180 182 164 143 95 103 125 127 126 127 128
297 284 342 285 261 274 266 255 214 200 208 229 243 252 228 264 157 180 165 172 178 185 188 186 184 184 187 186 188 189 185 185 186 184 181 166 150 106 116 128 125 126 126 127
287 339 352 303 339 241 258 237 229 209 226 207 197 236 148 202 215 192 174 188 190 193 191 189 190 188 188 187 190 190 188 187 192 186 180 168 158 121 121 124 117 119 133 138
221 299 263 267 302 168 265 26 219 205 53 351 269 324 230 203 215 198 195 199 199 200 196 193 192 190 189 186 190 187 189 189 193 191 184 177 170 157 130 130 118 105 122 142
205 210 246 186 262 266 22 22 350 15 75 9 344 341 339 336 299 207 203 210 206 207 199 195 192 187 184 186 187 189 191 192 193 195 189 186 184 183 173 158 135 108 97 131
307 215 199 90 209 174 356 320 298 151 178 356 346 335 333 333 163 236 206 215 210 211 201 194 192 188 184 185 187 190 193 195 196 194 191 188 188 185 182 175 171 148 98 127
50 42 179 228 242 30 347 326 155 149 288 318 325 320 320 301 257 290 329 214 215 209 203 192 192 189 185 186 189 194 196 199 193 195 191 193 193 190 187 184 181 172 150 136
116 314 164 183 221 131 354 5 63 278 299 313 324 322 313 309 304 288 280 238 209 202 200 192 192 193 189 189 192 196 200 192 193 197 198 197 197 195 195 192 185 182 182 158
88 42 325 8 28 328 339 336 352 339 309 325 326 329 332 324 318 296 266 247 221 200 202 193 192 194 194 194 196 199 201 196 194 199 200 200 199 202 201 200 199 195 194 190
114 237 198 329 332 317 308 300 348 341 336 339 347 340 346 331 332 308 263 242 222 204 202 194 192 197 199 198 201 205 199 195 198 200 202 198 204 205 206 208 211 208 207 204
214 212 214 259 306 326 63 333 333 330 341 341 352 360 354 350 347 325 262 233 226 214 202 196 193 198 204 202 203 206 206 200 199 202 205 203 203 208 207 211 212 215 219 222
200 204 36 63 297 286 288 319 324 330 332 342 342 353 6 360 348 337 277 220 224 211 206 198 197 201 207 205 205 208 209 206 204 203 206 207 205 209 209 210 216 219 220 220